Home   Weather   Gandhinagar   Past weeks

Flag for India Past Weather in Gandhinagar, Gujarat, India — Yesterday and Last 2 Weeks

86 °F

Scattered clouds.

Feels Like: 91 °F
Forecast: 70 / 90 °F
Wind: 2 mph from Northwest

Location: Ahmadabad Airport

Current Time: Oct 25, 2016 at 12:19:37 PM

Latest Report: Oct 25, 2016 at 11:30 AM

Visibility: 4 mi

Pressure: 29.89 "Hg

Humidity: 59%

Dew Point: 70 °F

Location of GandhinagarLocation

Past Weather in Gandhinagar — Graph


Gandhinagar Temperature Yesterday

Maximum temperature yesterday: 90 °F (at 1:30 PM)
Minimum temperature yesterday: 73 °F (at 6:30 AM)
Average temperature yesterday: 81 °F

High & Low Weather Summary for the Past Weeks

High97 °F (Oct 17, 3:00 PM)94% (Oct 11, 6:30 AM)29.95 "Hg (Oct 11, 6:30 AM)
Low70 °F (Oct 20, 6:30 AM)26% (Oct 18, 3:00 PM)29.74 "Hg (Oct 10, 2:30 PM)
Average82 °F62%29.84 "Hg
* Reported Oct 10 10:30 AM — Oct 25 11:00 AM, Gandhinagar, Weather by CustomWeather, © 2016

Note: Actual official high and low records may vary slightly from our data, if they occured in-between our weather recording intervals... More about our weather records


Gandhinagar Weather History for the Previous 24 Hours

Scroll right to see more
Time TempWeatherWind HumidityBarometerVisibility
11:00 AM
Tue, Oct 25
84 °FScattered clouds.5 mph66%29.92 "Hg4 mi
10:30 AM82 °FScattered clouds.5 mph66%29.92 "Hg4 mi
9:30 AM81 °FHaze.No wind70%29.92 "Hg2 mi
8:30 AM77 °FHaze.No wind79%29.89 "Hg1 mi
8:00 AM75 °FFog.2 mph83%29.89 "Hg1 mi
7:30 AM73 °FFog.No wind83%29.86 "Hg1 mi
7:00 AM73 °FFog.3 mph78%29.86 "Hg2 mi
6:30 AM73 °FHaze.2 mph78%29.86 "Hg2 mi
6:00 AM73 °FHaze.3 mph78%29.83 "Hg2 mi
5:30 AM75 °FHaze.No wind74%29.83 "Hg2 mi
5:00 AM73 °FHaze.No wind78%29.83 "Hg2 mi
4:30 AM75 °FPassing clouds.2 mph74%29.83 "Hg2 mi
4:00 AM77 °FPassing clouds.3 mph69%29.83 "Hg2 mi
3:30 AM77 °FPassing clouds.No wind61%29.83 "Hg2 mi
3:00 AM77 °FPassing clouds.No wind61%29.83 "Hg2 mi
2:30 AM77 °FPassing clouds.3 mph57%29.83 "Hg2 mi
2:00 AM75 °FHaze.No wind65%29.83 "Hg2 mi
1:30 AM75 °FHaze.No wind69%29.83 "Hg2 mi
1:00 AM75 °FHaze.No wind69%29.86 "Hg2 mi
12:30 AM75 °FHaze.No wind65%29.86 "Hg2 mi
12:00 AM75 °FHaze.No wind65%29.86 "Hg2 mi
11:30 PM
Mon, Oct 24
77 °FHaze.No wind61%29.86 "Hg2 mi
11:00 PM77 °FHaze.No wind65%29.86 "Hg2 mi
10:30 PM77 °FHaze.3 mph65%29.86 "Hg2 mi
10:00 PM77 °FPassing clouds.No wind65%29.86 "Hg2 mi
9:30 PM79 °FPassing clouds.No wind58%29.86 "Hg2 mi
9:00 PM81 °FPassing clouds.No wind51%29.86 "Hg2 mi
8:30 PM81 °FPassing clouds.No wind48%29.86 "Hg2 mi
8:00 PM82 °FPassing clouds.3 mph45%29.83 "Hg2 mi
7:30 PM82 °FPassing clouds.No wind48%29.83 "Hg2 mi
7:00 PM82 °FPassing clouds.No wind45%29.83 "Hg2 mi
6:00 PM86 °FPassing clouds.3 mph38%29.83 "Hg4 mi
5:30 PM88 °FPassing clouds.7 mph35%29.80 "Hg4 mi
4:00 PM90 °FScattered clouds.6 mph38%29.80 "Hg4 mi
3:30 PM90 °FScattered clouds.8 mph41%29.80 "Hg4 mi
3:00 PM90 °FScattered clouds.7 mph38%29.83 "Hg4 mi
2:30 PM90 °FScattered clouds.7 mph38%29.83 "Hg4 mi
2:00 PM90 °FScattered clouds.6 mph41%29.83 "Hg4 mi
1:30 PM90 °FScattered clouds.7 mph41%29.86 "Hg4 mi
1:00 PM88 °FPassing clouds.9 mph46%29.86 "Hg4 mi
12:30 PM88 °FClear.5 mph46%29.89 "Hg4 mi
12:00 PM88 °FClear.5 mph46%29.89 "Hg4 mi
Weather by CustomWeather, © 2016

See weather overviewHow to use our weather pages